COSMOS 921

Satellite information

Favourite Embed

Satellite Type and Status

PAYLOADIN ORBIT

Key statistics

Satellite COSMOS 921 at a glance.

Uptime

17546

Days in orbit

Revolutions

≈ 15.0

Per day

Orbit

LEO

Low Earth Orbit

Inclination

75.8

Latest

Satellite identification and parameters

Extended collection of information and parameters for COSMOS 921.

Object identification

Identified? True

Debris? False

Object name: COSMOS 921

International designator: 1977-055A

Object number (NORAD): 10095

Object ID (CCSDS): 10095

Country: COMMONWEALTH OF INDEPENDENT STATES (CIS)

Current information (Y/N): Y

RCS size: LARGE

Orbital parameters

Period: 96.261 minutes

Inclination: 75.8323 deg

SMA: 6957.606 km

Apoapsis: 604.403 km

Periapsis: 554.539 km

RAAN: 88.9856 deg

Eccentricy: 0.0035834

Argument of periapsis: 155.8242 deg

Mean anomaly: 204.4645 deg

Mean motion: 14.95936006 rev/day

Mean motion (dot): 0.00000597 rev/day2

B* drag term: 0.000054557 1/REarth

Two-line elements (TLE)

Creation date: July 6, 2025, 10:46 p.m.

Reference frame: TEME

Reference center: EARTH

Epoch: July 6, 2025, 7:37 p.m. UTC

TLE line 0: 0 COSMOS 921

TLE line 1: 1 10095U 77055A 25187.81788742 .00000597 00000-0 54557-4 0 9998

TLE line 2: 2 10095 75.8323 88.9856 0035834 155.8242 204.4645 14.95936006602960

Live tracking on map

Real-time ground track for satellite COSMOS 921.

In-orbit conjunctions

A list of the most updated potential collisions computed for object COSMOS 921.

Target Orbit TCA Probability of collision Miss distance Type
OBJECT A SSO 2025-03-24 04:40:16 0.0003439878 249.0 (m) UNKNOWN
CZ-4 DEB SSO 2025-02-13 17:25:28 0.000101474 895.0 (m) DEBRIS
FENGYUN 1C DEB SSO 2024-12-16 22:41:17 0.0001181753 545.0 (m) DEBRIS
CZ-6A DEB SSO 2024-11-11 14:20:08 0.0001303748 375.0 (m) DEBRIS

Associated space launch

Dynamic simulator of the Tselina-D ELINT satellite

COSMOS 921 was lifted into orbit during the mission ‘Tsiklon-3 | EPN 03.0380 1’, on board a Tsiklon-3 space rocket.

The launch took place on June 24, 1977, 10:30 a.m. from 32/2.

For more information about the launch, click the button.

Launch to space Tsiklon-3 | EPN 03.0380 1
Tsiklon-3 | EPN 03.0380 1

Agency: N/A

Status: Launch Successful

Launch date: June 24, 1977, 10:30 a.m. UTC

Rocket: Tsiklon-3

Launch pad: 32/2

Location: Plesetsk Cosmodrome, Russian Federation

...

Latest news about this satellite

There are no fresh news available about this satellite. Check back as we update our databases every day.


Newsletter sign-up

Weekly statistics, charts and insights to help you stay on top of the space industry.